Skip Page Navigation
NASA JPL Caltech
NASA Logo - Jet Propulsion Laboratory + View the NASA Portal
+ Center for Near-Earth Object Studies
JPL Home Earth Solar System Stars & Galaxies Technology
JPL Solar System Dynamics
BODIES ORBITS EPHEMERIDES TOOLS PHYSICAL DATA DISCOVERY FAQ SITE MAP
IMPORTANT: The SSD Announcement email list is now available. Major changes are coming in the near future, including possible hostname and/or URL changes. To be notified of such changes, subscribe to this email list.

Please visit this page for more details.


JPL Small-Body Database Browser
Search: [ help ]  
212487 (2006 QM100)
Classification: Main-belt Asteroid          SPK-ID: 2212487
Ephemeris | Orbit Diagram | Orbital Elements | Mission Design | Physical Parameters | Discovery Circumstances | Close-Approach Data ]

[ show orbit diagram ]
Orbital Elements at Epoch 2458600.5 (2019-Apr-27.0) TDB
Reference: JPL 11 (heliocentric ecliptic J2000)
 Element Value Uncertainty (1-sigma)   Units 
e .1669056349789056 7.6652e-08  
a 2.775286371489392 2.8711e-08 au
q 2.312075437407652 2.2255e-07 au
i 9.824162966139689 6.9558e-06 deg
node 37.08208430343768 4.1127e-05 deg
peri 308.7643516404848 4.5212e-05 deg
M 261.3346521785139 2.1572e-05 deg
tp 2459063.330831547658
(2020-Aug-01.83083155)
0.00010539 TDB
period 1688.729660778356
4.62
2.6206e-05
7.175e-08
d
yr
n .2131779931158855 3.3081e-09 deg/d
Q 3.238497305571133 3.3503e-08 au
  Orbit Determination Parameters
   # obs. used (total)      210  
   data-arc span      6943 days (19.01 yr)  
   first obs. used      2000-05-05  
   last obs. used      2019-05-09  
   planetary ephem.      DE431  
   SB-pert. ephem.      SB431-N16  
   condition code      0  
   norm. resid. RMS      .54977  
   source      ORB  
   producer      Otto Matic  
   solution date      2019-May-30 08:20:20  

Additional Information
 Earth MOID = 1.32006 au 
 Jupiter MOID = 2.24037 au 
 T_jup = 3.294 
[ show covariance matrix ]

Ephemeris | Orbit Diagram | Orbital Elements | Mission Design | Physical Parameters | Discovery Circumstances | Close-Approach Data ]

Physical Parameter Table
Parameter Symbol Value Units Sigma Reference Notes
absolute magnitude H 16.0   n/a MPO437020  

212487 (2006 QM100)          Discovered 2006-Aug-24 by NEAT at Palomar
Reference: 20090409/Numbers.arcLast Updated: 2009-04-10

[ show close-approach data ]
Ephemeris | Orbit Diagram | Orbital Elements | Mission Design | Physical Parameters | Discovery Circumstances | Close-Approach Data ]
ABOUT SSD CREDITS/AWARDS PRIVACY/COPYRIGHT GLOSSARY LINKS
FirstGov
(server date/time)  
NASA Home Page
Site Manager:   Ryan S. Park
Webmaster  Alan B. Chamberlin